• In Uzbekistan
  • List of Countries
  • For 7 days
  • Water Temperature
  • Satellite Maps
  • Weather Map
  • Weather Widgets
  • user-avatar
    Login

    Hourly Weather Thessaloniki

    Today, 18 October, Wednesday

    Time Temperature Precipitation Wind Pressure Humidity
    00:00 +20°C° 0 mm 1 mps 764 mmHg 58%
    01:00 +20°C° 0 mm 1 mps 764 mmHg 58%
    02:00 +20°C° 0 mm 1 mps 764 mmHg 57%
    03:00 +20°C° 0 mm 1 mps 763 mmHg 57%
    04:00 +19°C° 0 mm 1 mps 763 mmHg 57%
    05:00 +19°C° 0 mm 1 mps 763 mmHg 57%
    06:00 +20°C° 0 mm 1 mps 763 mmHg 56%
    07:00 +20°C° 0 mm 1 mps 763 mmHg 54%
    08:00 +21°C° 0 mm 1 mps 763 mmHg 50%
    09:00 +23°C° 0 mm 1 mps 762 mmHg 45%
    10:00 +25°C° 0 mm 1 mps 762 mmHg 40%
    11:00 +26°C° 0 mm 1 mps 762 mmHg 35%
    12:00 +27°C° 0 mm 1 mps 761 mmHg 32%
    13:00 +28°C° 0 mm 2 mps 761 mmHg 30%
    14:00 +28°C° 0 mm 2 mps 761 mmHg 30%
    15:00 +27°C° 0 mm 1 mps 761 mmHg 32%
    16:00 +27°C° 0 mm 1 mps 760 mmHg 33%
    17:00 +26°C° 0 mm 1 mps 760 mmHg 34%
    18:00 +25°C° 0 mm 1 mps 760 mmHg 37%
    19:00 +23°C° 0 mm 1 mps 760 mmHg 39%
    20:00 +20°C° 0 mm 0 mps 761 mmHg 41%
    21:00 +21°C° 0 mm 1 mps 761 mmHg 41%
    22:00 +21°C° 0 mm 1 mps 761 mmHg 42%
    23:00 +21°C° 0 mm 1 mps 761 mmHg 43%

    Tomorrow, 19 October, Thursday

    Time Temperature Precipitation Wind Pressure Humidity
    00:00 +20°C° 0 mm 1 mps 760 mmHg 43%
    01:00 +20°C° 0 mm 1 mps 760 mmHg 44%
    02:00 +20°C° 0 mm 1 mps 760 mmHg 45%
    03:00 +19°C° 0 mm 1 mps 760 mmHg 46%
    04:00 +19°C° 0 mm 1 mps 760 mmHg 47%
    05:00 +19°C° 0 mm 1 mps 760 mmHg 48%
    06:00 +19°C° 0 mm 1 mps 760 mmHg 48%
    07:00 +20°C° 0 mm 1 mps 760 mmHg 47%
    08:00 +20°C° 0 mm 1 mps 760 mmHg 47%
    09:00 +22°C° 0 mm 1 mps 760 mmHg 42%
    10:00 +24°C° 0 mm 1 mps 760 mmHg 37%
    11:00 +26°C° 0 mm 1 mps 760 mmHg 32%
    12:00 +27°C° 0 mm 1 mps 759 mmHg 30%
    13:00 +27°C° 0 mm 1 mps 759 mmHg 28%
    14:00 +28°C° 0 mm 2 mps 759 mmHg 27%
    15:00 +27°C° 0 mm 2 mps 759 mmHg 29%
    16:00 +26°C° 0 mm 2 mps 758 mmHg 31%
    17:00 +26°C° 0 mm 2 mps 758 mmHg 33%
    18:00 +24°C° 0 mm 2 mps 759 mmHg 37%
    19:00 +23°C° 0 mm 1 mps 759 mmHg 41%
    20:00 +21°C° 0 mm 1 mps 759 mmHg 44%
    21:00 +21°C° 0 mm 1 mps 759 mmHg 45%
    22:00 +20°C° 0 mm 1 mps 759 mmHg 47%
    23:00 +20°C° 0 mm 1 mps 759 mmHg 48%

    Day after tomorrow, 20 October, Friday

    Time Temperature Precipitation Wind Pressure Humidity
    00:00 +20°C° 0 mm 1 mps 760 mmHg 48%
    01:00 +19°C° 0 mm 1 mps 760 mmHg 49%
    02:00 +19°C° 0 mm 1 mps 760 mmHg 49%
    03:00 +19°C° 0 mm 1 mps 759 mmHg 49%
    04:00 +18°C° 0 mm 1 mps 759 mmHg 49%
    05:00 +18°C° 0 mm 1 mps 759 mmHg 50%
    06:00 +19°C° 0 mm 1 mps 759 mmHg 49%
    07:00 +19°C° 0 mm 1 mps 759 mmHg 48%
    08:00 +20°C° 0 mm 1 mps 760 mmHg 47%
    09:00 +22°C° 0 mm 1 mps 760 mmHg 42%
    10:00 +24°C° 0 mm 1 mps 760 mmHg 38%
    11:00 +25°C° 0 mm 1 mps 760 mmHg 33%
    12:00 +26°C° 0 mm 1 mps 759 mmHg 32%
    13:00 +27°C° 0 mm 1 mps 759 mmHg 30%
    14:00 +27°C° 0 mm 1 mps 758 mmHg 29%
    15:00 +27°C° 0 mm 2 mps 758 mmHg 31%
    16:00 +26°C° 0 mm 2 mps 758 mmHg 34%
    17:00 +25°C° 0 mm 2 mps 758 mmHg 36%
    18:00 +24°C° 0 mm 2 mps 758 mmHg 41%
    19:00 +23°C° 0 mm 1 mps 759 mmHg 45%
    20:00 +21°C° 0 mm 1 mps 759 mmHg 49%
    21:00 +21°C° 0 mm 1 mps 759 mmHg 50%
    22:00 +21°C° 0 mm 1 mps 760 mmHg 51%
    23:00 +18°C° 0 mm 0 mps 760 mmHg 52%

    21 October, Saturday

    Time Temperature Precipitation Wind Pressure Humidity
    00:00 +20°C° 0 mm 1 mps 760 mmHg 52%
    01:00 +20°C° 0 mm 1 mps 760 mmHg 52%
    02:00 +19°C° 0 mm 1 mps 760 mmHg 52%
    03:00 +19°C° 0 mm 1 mps 760 mmHg 52%
    04:00 +19°C° 0 mm 1 mps 760 mmHg 52%
    05:00 +18°C° 0 mm 1 mps 760 mmHg 52%
    06:00 +19°C° 0 mm 1 mps 760 mmHg 51%
    07:00 +19°C° 0 mm 1 mps 760 mmHg 50%
    08:00 +20°C° 0 mm 1 mps 760 mmHg 48%
    09:00 +21°C° 0 mm 1 mps 760 mmHg 43%
    10:00 +23°C° 0 mm 1 mps 760 mmHg 38%
    11:00 +25°C° 0 mm 1 mps 760 mmHg 33%
    12:00 +26°C° 0 mm 1 mps 760 mmHg 31%
    13:00 +27°C° 0 mm 1 mps 759 mmHg 30%
    14:00 +27°C° 0 mm 1 mps 759 mmHg 28%
    15:00 +27°C° 0 mm 1 mps 759 mmHg 30%
    16:00 +26°C° 0 mm 1 mps 759 mmHg 32%
    17:00 +25°C° 0 mm 1 mps 759 mmHg 34%
    18:00 +24°C° 0 mm 1 mps 759 mmHg 37%
    19:00 +23°C° 0 mm 1 mps 759 mmHg 40%
    20:00 +21°C° 0 mm 1 mps 760 mmHg 44%
    21:00 +21°C° 0 mm 1 mps 760 mmHg 45%
    22:00 +20°C° 0 mm 1 mps 760 mmHg 46%
    23:00 +20°C° 0 mm 1 mps 760 mmHg 47%

    22 October, Sunday

    Time Temperature Precipitation Wind Pressure Humidity
    00:00 +20°C° 0 mm 1 mps 760 mmHg 47%
    01:00 +19°C° 0 mm 1 mps 760 mmHg 48%
    02:00 +19°C° 0 mm 1 mps 760 mmHg 49%
    03:00 +19°C° 0 mm 1 mps 760 mmHg 50%
    04:00 +18°C° 0 mm 1 mps 760 mmHg 50%
    05:00 +18°C° 0 mm 1 mps 760 mmHg 51%
    06:00 +19°C° 0 mm 1 mps 760 mmHg 51%
    07:00 +19°C° 0 mm 1 mps 760 mmHg 50%
    08:00 +19°C° 0 mm 1 mps 760 mmHg 50%
    09:00 +21°C° 0 mm 1 mps 760 mmHg 45%
    10:00 +23°C° 0 mm 1 mps 760 mmHg 41%
    11:00 +25°C° 0 mm 1 mps 760 mmHg 36%
    12:00 +25°C° 0 mm 1 mps 759 mmHg 35%
    13:00 +26°C° 0 mm 2 mps 758 mmHg 34%
    14:00 +26°C° 0 mm 2 mps 758 mmHg 32%
    15:00 +26°C° 0 mm 3 mps 758 mmHg 36%
    16:00 +25°C° 0 mm 3 mps 757 mmHg 39%
    17:00 +24°C° 0 mm 3 mps 757 mmHg 42%
    18:00 +22°C° 0 mm 3 mps 757 mmHg 48%
    19:00 +20°C° 0 mm 2 mps 757 mmHg 55%
    20:00 +19°C° 0 mm 2 mps 757 mmHg 61%
    21:00 +19°C° 0 mm 2 mps 757 mmHg 63%
    22:00 +18°C° 0 mm 2 mps 757 mmHg 66%
    23:00 +19°C° 0 mm 1 mps 757 mmHg 68%

    23 October, Monday

    Time Temperature Precipitation Wind Pressure Humidity
    00:00 +19°C° 0 mm 1 mps 757 mmHg 69%
    01:00 +19°C° 0 mm 1 mps 756 mmHg 70%
    02:00 +18°C° 0 mm 1 mps 756 mmHg 71%
    03:00 +18°C° 0 mm 1 mps 756 mmHg 71%
    04:00 +18°C° 0 mm 1 mps 755 mmHg 71%
    05:00 +17°C° 0 mm 2 mps 755 mmHg 71%
    06:00 +17°C° 0 mm 2 mps 755 mmHg 70%
    07:00 +17°C° 0 mm 2 mps 754 mmHg 68%
    08:00 +18°C° 0 mm 2 mps 754 mmHg 67%
    09:00 +19°C° 0 mm 2 mps 754 mmHg 63%
    10:00 +20°C° 0 mm 3 mps 753 mmHg 60%
    11:00 +21°C° 0 mm 4 mps 753 mmHg 56%
    12:00 +21°C° 0.5 mm 4 mps 752 mmHg 58%
    13:00 +21°C° 0.5 mm 4 mps 752 mmHg 60%
    14:00 +21°C° 0.5 mm 4 mps 751 mmHg 62%
    15:00 +20°C° 2.8 mm 4 mps 751 mmHg 67%
    16:00 +19°C° 2.8 mm 4 mps 751 mmHg 73%
    17:00 +18°C° 2.8 mm 3 mps 751 mmHg 79%
    18:00 +17°C° 4.3 mm 3 mps 750 mmHg 81%
    19:00 +17°C° 4.3 mm 4 mps 750 mmHg 83%
    20:00 +15°C° 4.3 mm 4 mps 750 mmHg 85%
    21:00 +15°C° 4.3 mm 4 mps 750 mmHg 85%
    22:00 +15°C° 4.3 mm 5 mps 750 mmHg 86%
    23:00 +14°C° 4.3 mm 5 mps 750 mmHg 86%
    Show more